Date,TemperatureHighF,TemperatureAvgF,TemperatureLowF,DewpointHighF,DewpointAvgF,DewpointLowF,HumidityHigh,HumidityAvg,HumidityLow,PressureMaxIn,PressureMinIn,WindSpeedMaxMPH,WindSpeedAvgMPH,GustSpeedMaxMPH,PrecipitationSumIn
2013-2-1,52,47,42,36,33,29,71,60,45,29.86,29.49,15,4,22,0.00
2013-2-2,47,43,40,44,37,33,89,80,71,29.48,29.23,16,2,114,0.45
2013-2-3,41,36,33,34,29,22,88,75,60,29.94,29.43,18,6,28,0.04
2013-2-4,40,35,30,31,28,22,86,75,63,29.94,29.87,11,4,14,0.06
2013-2-5,44,40,36,36,33,31,84,79,73,29.92,29.60,12,3,12,0.02
2013-2-6,40,38,34,36,34,30,88,85,81,29.60,29.42,10,2,12,0.31
2013-2-7,36,34,31,31,29,23,89,82,73,29.73,29.40,12,3,17,0.24
2013-2-8,39,33,29,27,24,21,74,67,56,29.84,29.72,11,4,13,0.00
2013-2-9,34,31,28,27,24,21,86,77,64,29.92,29.84,9,2,11,0.00
2013-2-10,32,30,27,28,26,24,88,86,80,29.90,29.82,9,2,10,0.00
2013-2-11,34,28,26,28,25,22,88,85,75,29.94,29.88,11,1,14,0.10
2013-2-12,36,32,26,32,27,22,87,80,74,29.90,29.79,14,5,17,0.12
2013-2-13,44,40,36,36,34,32,86,77,72,30.01,29.85,10,3,13,0.02
2013-2-14,42,38,37,35,34,32,87,83,72,30.11,30.01,7,2,8,0.08
2013-2-15,45,40,38,38,35,33,88,82,75,30.09,30.02,6,1,9,0.00
2013-2-16,46,39,34,34,32,29,85,75,55,30.16,30.08,10,3,13,0.00
2013-2-17,39,36,33,32,30,28,85,78,72,30.19,30.14,8,2,114,0.00
2013-2-18,41,37,33,31,29,27,80,75,66,30.16,30.08,8,1,8,0.00
2013-2-19,41,36,32,32,29,26,87,75,59,30.09,29.83,16,3,18,0.02
2013-2-20,41,36,30,32,28,23,86,73,57,30.06,29.84,12,4,18,0.00
2013-2-21,39,33,27,26,22,16,78,65,40,30.07,29.93,10,3,11,0.00
2013-2-22,35,32,29,32,28,22,90,85,66,29.93,29.73,15,2,19,0.08
2013-2-23,42,38,34,39,35,32,90,88,86,29.80,29.67,10,2,14,0.35
2013-2-24,46,44,42,42,40,38,89,85,80,29.90,29.75,11,3,12,0.35
2013-2-25,50,47,44,44,41,40,88,81,75,30.11,29.89,11,2,12,0.00
2013-2-26,57,50,46,44,42,40,83,75,60,30.12,30.06,9,2,14,0.00
2013-2-27,50,46,42,42,39,37,84,76,65,30.29,30.12,8,2,8,0.02
2013-2-28,53,46,42,38,35,32,81,67,46,30.30,30.16,10,2,11,0.00